Tracking 30995 objects as of 5-Jul-2025
HD Live streaming from Space Station
objects crossing your sky now

STARLINK-5770

Track STARLINK-5770 now!
10-day predictions
STARLINK-5770 is classified as:


NORAD ID: 56026
Int'l Code: 2023-042AS
Perigee: 565.2 km
Apogee: 567.3 km
Inclination: 43.0 °
Period: 95.8 minutes
Semi major axis: 6937 km
RCS: Unknown
Launch date: March 24, 2022
Source: United States (US)
Launch site: AIR FORCE EASTERN TEST RANGE (AFETR)
Your satellite tracking list
Your tracking list is empty




NASA's NSSDC Master Catalog

Two Line Element Set (TLE):
1 56026U 23042AS  25186.35069984  .00000033  00000-0  17553-4 0  9997
2 56026  43.0047 307.1124 0001498 268.8822  91.1849 15.02537587125851
Source of the keplerian elements: AFSPC